Time,TemperatureF,DewpointF,PressureIn,WindDirection,WindDirectionDegrees,WindSpeedMPH,WindSpeedGustMPH,Humidity,HourlyPrecipIn,Conditions,Clouds,dailyrainin,SoftwareType,DateUTC
2013-03-03 00:02:00,27.0,25.0,-100.00,NNW,337,4.0,12.0,86,1.14,,,-99.99,,2013-03-03 05:02:00,
2013-03-03 00:12:00,26.0,23.0,-100.00,WNW,303,6.0,12.0,86,10.79,,,-99.99,,2013-03-03 05:12:00,
2013-03-03 00:22:00,26.0,23.0,-100.00,NNW,337,6.0,12.0,86,15.31,,,-99.99,,2013-03-03 05:22:00,
2013-03-03 00:32:00,26.0,23.0,-100.00,NNW,327,6.0,12.0,86,12.48,,,-99.99,,2013-03-03 05:32:00,
2013-03-03 00:42:00,26.0,23.0,-100.00,NW,313,5.0,12.0,86,2.83,,,-99.99,,2013-03-03 05:42:00,
2013-03-03 00:52:00,26.0,25.0,-100.00,NW,307,4.0,12.0,88,0.00,,,-99.99,,2013-03-03 05:52:00,
2013-03-03 01:02:00,26.0,25.0,-100.00,NW,326,4.0,12.0,88,26.65,,,-99.99,,2013-03-03 06:02:00,
2013-03-03 01:11:00,28.0,25.0,-100.00,WNW,303,3.0,12.0,88,9.06,,,-99.99,,2013-03-03 06:11:00,
2013-03-03 01:22:00,27.0,25.0,-100.00,NW,326,4.0,12.0,90,9.06,,,-99.99,,2013-03-03 06:22:00,
2013-03-03 01:32:00,28.0,27.0,-100.00,NW,319,4.0,12.0,90,7.36,,,-99.99,,2013-03-03 06:32:00,
2013-03-03 01:42:00,28.0,27.0,-100.00,North,351,4.0,12.0,90,1.14,,,-99.99,,2013-03-03 06:42:00,
2013-03-03 01:52:00,28.0,27.0,-100.00,NNW,330,4.0,12.0,89,4.53,,,-99.99,,2013-03-03 06:52:00,
2013-03-03 02:01:00,27.0,25.0,-100.00,NNW,331,4.0,12.0,89,6.22,,,-99.99,,2013-03-03 07:01:00,
2013-03-03 02:11:00,27.0,25.0,-100.00,NW,319,6.0,12.0,89,2.83,,,-99.99,,2013-03-03 07:11:00,
2013-03-03 02:21:00,27.0,25.0,-100.00,NW,323,6.0,12.0,89,9.06,,,-99.99,,2013-03-03 07:21:00,
2013-03-03 02:32:00,27.0,25.0,-100.00,NW,309,4.0,12.0,89,2.83,,,-99.99,,2013-03-03 07:32:00,
2013-03-03 02:42:00,28.0,27.0,-100.00,NW,321,3.0,12.0,89,1.14,,,-99.99,,2013-03-03 07:42:00,
2013-03-03 02:51:00,27.0,25.0,-100.00,NW,323,2.0,12.0,89,1.14,,,-99.99,,2013-03-03 07:51:00,
2013-03-03 03:01:00,26.0,23.0,-100.00,NNW,347,3.0,3.0,88,2.83,,,-99.99,,2013-03-03 08:01:00,
2013-03-03 03:11:00,28.0,27.0,-100.00,NW,317,2.0,3.0,89,9.06,,,-99.99,,2013-03-03 08:11:00,
2013-03-03 03:21:00,27.0,25.0,-100.00,NW,316,3.0,4.0,89,2.83,,,-99.99,,2013-03-03 08:21:00,
2013-03-03 03:32:00,27.0,25.0,-100.00,NNW,327,3.0,4.0,89,10.79,,,-99.99,,2013-03-03 08:32:00,
2013-03-03 03:42:00,27.0,25.0,-100.00,NNW,338,4.0,6.0,88,4.53,,,-99.99,,2013-03-03 08:42:00,
2013-03-03 03:53:00,27.0,25.0,-100.00,NNW,330,4.0,6.0,89,1.14,,,-99.99,,2013-03-03 08:53:00,
2013-03-03 04:02:00,27.0,25.0,-100.00,NW,319,2.0,6.0,88,1.14,,,-99.99,,2013-03-03 09:02:00,
2013-03-03 04:12:00,28.0,25.0,-100.00,NNW,327,2.0,6.0,86,0.00,,,-99.99,,2013-03-03 09:12:00,
2013-03-03 04:21:00,27.0,25.0,-100.00,North,350,3.0,6.0,86,0.00,,,-99.99,,2013-03-03 09:21:00,
2013-03-03 04:32:00,27.0,25.0,-100.00,NW,304,4.0,6.0,85,2.83,,,-99.99,,2013-03-03 09:32:00,
2013-03-03 04:42:00,24.0,19.0,-100.00,WNW,302,4.0,6.0,82,1.14,,,-99.99,,2013-03-03 09:42:00,
2013-03-03 04:51:00,27.0,23.0,-100.00,North,358,3.0,6.0,85,0.00,,,-99.99,,2013-03-03 09:51:00,
2013-03-03 05:01:00,24.0,21.0,-100.00,NW,324,3.0,6.0,84,4.53,,,-99.99,,2013-03-03 10:01:00,
2013-03-03 05:12:00,26.0,23.0,-100.00,NW,321,3.0,6.0,85,1.14,,,-99.99,,2013-03-03 10:12:00,
2013-03-03 05:21:00,27.0,23.0,-100.00,North,358,3.0,6.0,85,0.00,,,-99.99,,2013-03-03 10:21:00,
2013-03-03 05:32:00,26.0,23.0,-100.00,NNW,333,4.0,6.0,86,0.00,,,-99.99,,2013-03-03 10:32:00,
2013-03-03 05:42:00,26.0,23.0,-100.00,NNW,340,4.0,6.0,86,1.14,,,-99.99,,2013-03-03 10:42:00,
2013-03-03 05:52:00,26.0,23.0,-100.00,NW,321,3.0,6.0,86,1.14,,,-99.99,,2013-03-03 10:52:00,
2013-03-03 06:01:00,26.0,23.0,-100.00,NW,317,2.0,6.0,86,0.00,,,-99.99,,2013-03-03 11:01:00,
2013-03-03 06:11:00,26.0,23.0,-100.00,NW,306,5.0,6.0,86,0.00,,,-99.99,,2013-03-03 11:11:00,
2013-03-03 06:22:00,26.0,23.0,-100.00,WNW,303,3.0,6.0,86,0.00,,,-99.99,,2013-03-03 11:22:00,
2013-03-03 06:32:00,26.0,23.0,-100.00,NW,307,3.0,6.0,85,0.00,,,-99.99,,2013-03-03 11:32:00,
2013-03-03 06:42:00,26.0,23.0,-100.00,NNW,343,2.0,6.0,85,1.14,,,-99.99,,2013-03-03 11:42:00,
2013-03-03 06:52:00,26.0,23.0,-100.00,WNW,302,3.0,6.0,85,0.00,,,-99.99,,2013-03-03 11:52:00,
2013-03-03 07:02:00,26.0,23.0,-100.00,WNW,303,5.0,6.0,85,0.00,,,-99.99,,2013-03-03 12:02:00,
2013-03-03 07:11:00,25.0,23.0,-100.00,NW,314,3.0,6.0,85,0.00,,,-99.99,,2013-03-03 12:11:00,
2013-03-03 07:22:00,23.0,19.0,-100.00,NNW,334,3.0,6.0,84,0.00,,,-99.99,,2013-03-03 12:22:00,
2013-03-03 07:32:00,25.0,23.0,-100.00,WNW,292,3.0,6.0,85,0.00,,,-99.99,,2013-03-03 12:32:00,
2013-03-03 07:43:00,23.0,19.0,-100.00,NW,314,2.0,6.0,84,6.22,,,-99.99,,2013-03-03 12:43:00,
2013-03-03 07:52:00,23.0,19.0,-100.00,NW,320,2.0,6.0,84,12.48,,,-99.99,,2013-03-03 12:52:00,
2013-03-03 08:02:00,23.0,19.0,-100.00,NW,316,1.0,6.0,85,4.53,,,-99.99,,2013-03-03 13:02:00,
2013-03-03 08:11:00,25.0,23.0,-100.00,NNW,327,1.0,6.0,86,26.65,,,-99.99,,2013-03-03 13:11:00,
2013-03-03 08:22:00,26.0,23.0,-100.00,NW,309,1.0,6.0,86,10.79,,,-99.99,,2013-03-03 13:22:00,
2013-03-03 08:32:00,23.0,21.0,-100.00,NW,324,2.0,6.0,85,4.53,,,-99.99,,2013-03-03 13:32:00,
2013-03-03 08:42:00,26.0,23.0,-100.00,SW,230,1.0,6.0,85,6.22,,,-99.99,,2013-03-03 13:42:00,
2013-03-03 08:52:00,26.0,23.0,-100.00,NW,306,1.0,6.0,86,15.31,,,-99.99,,2013-03-03 13:52:00,
2013-03-03 09:02:00,23.0,21.0,-100.00,NW,306,2.0,6.0,85,2.83,,,-99.99,,2013-03-03 14:02:00,
2013-03-03 09:11:00,23.0,19.0,-100.00,NW,304,4.0,6.0,85,4.53,,,-99.99,,2013-03-03 14:11:00,
2013-03-03 09:22:00,27.0,23.0,-100.00,NNW,331,2.0,6.0,86,2.83,,,-99.99,,2013-03-03 14:22:00,
2013-03-03 09:32:00,26.0,23.0,-100.00,WNW,300,2.0,6.0,86,14.17,,,-99.99,,2013-03-03 14:32:00,
2013-03-03 09:42:00,24.0,21.0,-100.00,NW,313,3.0,6.0,85,10.79,,,-99.99,,2013-03-03 14:42:00,
2013-03-03 09:52:00,24.0,21.0,-100.00,WNW,299,3.0,6.0,85,1.14,,,-99.99,,2013-03-03 14:52:00,
2013-03-03 10:02:00,24.0,21.0,-100.00,WNW,299,4.0,6.0,86,6.22,,,-99.99,,2013-03-03 15:02:00,
2013-03-03 10:11:00,27.0,25.0,-100.00,WNW,299,2.0,6.0,86,14.17,,,-99.99,,2013-03-03 15:11:00,
2013-03-03 10:22:00,24.0,21.0,-100.00,NW,306,4.0,6.0,85,6.22,,,-99.99,,2013-03-03 15:22:00,
2013-03-03 10:32:00,24.0,21.0,-100.00,NW,307,6.0,8.0,84,2.83,,,-99.99,,2013-03-03 15:32:00,
2013-03-03 10:42:00,28.0,25.0,-100.00,WNW,302,5.0,8.0,84,0.00,,,-99.99,,2013-03-03 15:42:00,
2013-03-03 10:52:00,25.0,21.0,-100.00,NW,304,6.0,8.0,81,6.22,,,-99.99,,2013-03-03 15:52:00,
2013-03-03 11:02:00,26.0,21.0,-100.00,WNW,302,5.0,8.0,80,4.53,,,-99.99,,2013-03-03 16:02:00,
2013-03-03 11:12:00,28.0,23.0,-100.00,NW,304,6.0,8.0,80,0.00,,,-99.99,,2013-03-03 16:12:00,
2013-03-03 11:22:00,26.0,21.0,-100.00,NNW,336,6.0,8.0,78,2.83,,,-99.99,,2013-03-03 16:22:00,
2013-03-03 11:32:00,26.0,21.0,-100.00,WNW,293,6.0,8.0,76,0.00,,,-99.99,,2013-03-03 16:32:00,
2013-03-03 11:42:00,29.0,23.0,-100.00,NW,312,5.0,8.0,75,0.00,,,-99.99,,2013-03-03 16:42:00,
2013-03-03 11:52:00,28.0,23.0,-100.00,NW,309,5.0,8.0,75,0.00,,,-99.99,,2013-03-03 16:52:00,
2013-03-03 12:01:00,30.0,23.0,-100.00,WNW,293,6.0,8.0,73,0.00,,,-99.99,,2013-03-03 17:01:00,
2013-03-03 12:11:00,27.0,21.0,-100.00,WNW,292,5.0,8.0,73,0.00,,,-99.99,,2013-03-03 17:11:00,
2013-03-03 12:22:00,28.0,21.0,-100.00,WNW,297,6.0,12.0,72,0.00,,,-99.99,,2013-03-03 17:22:00,
2013-03-03 12:32:00,27.0,19.0,-100.00,NW,304,6.0,12.0,69,0.00,,,-99.99,,2013-03-03 17:32:00,
2013-03-03 12:42:00,27.0,19.0,-100.00,West,264,9.0,12.0,68,0.00,,,-99.99,,2013-03-03 17:42:00,
2013-03-03 12:52:00,28.0,19.0,-100.00,WNW,289,10.0,12.0,66,0.00,,,-99.99,,2013-03-03 17:52:00,
2013-03-03 13:02:00,28.0,18.0,-100.00,NW,317,7.0,12.0,64,0.00,,,-99.99,,2013-03-03 18:02:00,
2013-03-03 13:11:00,30.0,21.0,-100.00,WNW,282,5.0,12.0,66,0.00,,,-99.99,,2013-03-03 18:11:00,
2013-03-03 13:22:00,30.0,21.0,-100.00,WNW,292,4.0,12.0,67,0.00,,,-99.99,,2013-03-03 18:22:00,
2013-03-03 13:32:00,29.0,19.0,-100.00,WNW,295,6.0,12.0,66,0.00,,,-99.99,,2013-03-03 18:32:00,
2013-03-03 13:42:00,29.0,19.0,-100.00,WNW,303,7.0,12.0,66,0.00,,,-99.99,,2013-03-03 18:42:00,
2013-03-03 13:52:00,30.0,21.0,-100.00,NW,307,6.0,12.0,68,0.00,,,-99.99,,2013-03-03 18:52:00,
2013-03-03 14:02:00,27.0,18.0,-100.00,NW,319,5.0,12.0,66,1.14,,,-99.99,,2013-03-03 19:02:00,
2013-03-03 14:11:00,27.0,19.0,-100.00,NNW,337,5.0,12.0,67,0.00,,,-99.99,,2013-03-03 19:11:00,
2013-03-03 14:22:00,30.0,21.0,-100.00,NW,309,4.0,12.0,67,0.00,,,-99.99,,2013-03-03 19:22:00,
2013-03-03 14:32:00,29.0,21.0,-100.00,WNW,289,8.0,12.0,67,0.00,,,-99.99,,2013-03-03 19:32:00,
2013-03-03 14:42:00,29.0,21.0,-100.00,NNW,344,7.0,12.0,67,0.00,,,-99.99,,2013-03-03 19:42:00,
2013-03-03 14:52:00,30.0,19.0,-100.00,West,279,7.0,12.0,64,0.00,,,-99.99,,2013-03-03 19:52:00,
2013-03-03 15:01:00,28.0,18.0,-100.00,West,271,6.0,12.0,63,0.00,,,-99.99,,2013-03-03 20:01:00,
2013-03-03 15:11:00,28.0,18.0,-100.00,WSW,255,6.0,12.0,63,0.00,,,-99.99,,2013-03-03 20:11:00,
2013-03-03 15:22:00,30.0,19.0,-100.00,West,272,8.0,12.0,64,0.00,,,-99.99,,2013-03-03 20:22:00,
2013-03-03 15:32:00,28.0,19.0,-100.00,WNW,300,7.0,12.0,66,2.83,,,-99.99,,2013-03-03 20:32:00,
2013-03-03 15:42:00,28.0,21.0,-100.00,West,279,6.0,12.0,71,6.22,,,-99.99,,2013-03-03 20:42:00,
2013-03-03 15:52:00,28.0,21.0,-100.00,NW,312,6.0,12.0,72,2.83,,,-99.99,,2013-03-03 20:52:00,
2013-03-03 16:02:00,28.0,21.0,-100.00,NW,310,6.0,12.0,71,1.14,,,-99.99,,2013-03-03 21:02:00,
2013-03-03 16:12:00,27.0,21.0,-100.00,WNW,299,7.0,12.0,73,2.83,,,-99.99,,2013-03-03 21:12:00,
2013-03-03 16:22:00,27.0,21.0,-100.00,NNW,334,5.0,12.0,76,10.79,,,-99.99,,2013-03-03 21:22:00,
2013-03-03 16:32:00,26.0,21.0,-100.00,NW,310,6.0,12.0,77,7.36,,,-99.99,,2013-03-03 21:32:00,
2013-03-03 16:42:00,26.0,21.0,-100.00,NNW,334,5.0,12.0,78,1.14,,,-99.99,,2013-03-03 21:42:00,
2013-03-03 16:52:00,26.0,21.0,-100.00,NW,307,5.0,12.0,78,1.14,,,-99.99,,2013-03-03 21:52:00,
2013-03-03 17:02:00,26.0,21.0,-100.00,NW,309,4.0,12.0,77,0.00,,,-99.99,,2013-03-03 22:02:00,
2013-03-03 17:11:00,26.0,21.0,-100.00,NW,313,3.0,12.0,77,0.00,,,-99.99,,2013-03-03 22:11:00,
2013-03-03 17:22:00,26.0,19.0,-100.00,NW,312,6.0,12.0,76,1.14,,,-99.99,,2013-03-03 22:22:00,
2013-03-03 17:32:00,26.0,21.0,-100.00,WNW,296,7.0,12.0,77,0.00,,,-99.99,,2013-03-03 22:32:00,
2013-03-03 17:42:00,26.0,21.0,-100.00,NW,321,8.0,12.0,77,7.36,,,-99.99,,2013-03-03 22:42:00,
2013-03-03 17:52:00,26.0,21.0,-100.00,NW,313,6.0,12.0,76,0.00,,,-99.99,,2013-03-03 22:52:00,
2013-03-03 18:02:00,26.0,21.0,-100.00,NW,310,6.0,12.0,75,0.00,,,-99.99,,2013-03-03 23:02:00,
2013-03-03 18:11:00,27.0,19.0,-100.00,NW,304,6.0,12.0,71,0.00,,,-99.99,,2013-03-03 23:11:00,
2013-03-03 18:22:00,27.0,19.0,-100.00,NNW,336,6.0,12.0,69,0.00,,,-99.99,,2013-03-03 23:22:00,
2013-03-03 18:32:00,28.0,21.0,-100.00,NW,323,3.0,12.0,71,0.00,,,-99.99,,2013-03-03 23:32:00,
2013-03-03 18:42:00,29.0,21.0,-100.00,WNW,300,4.0,12.0,72,0.00,,,-99.99,,2013-03-03 23:42:00,
2013-03-03 18:52:00,28.0,21.0,-100.00,WNW,285,6.0,12.0,72,0.00,,,-99.99,,2013-03-03 23:52:00,
2013-03-03 19:02:00,28.0,21.0,-100.00,NW,326,4.0,12.0,73,0.00,,,-99.99,,2013-03-04 00:02:00,
2013-03-03 19:11:00,28.0,23.0,-100.00,NW,316,4.0,12.0,76,1.14,,,-99.99,,2013-03-04 00:11:00,
2013-03-03 19:22:00,28.0,23.0,-100.00,WNW,297,2.0,12.0,77,0.00,,,-99.99,,2013-03-04 00:22:00,
2013-03-03 19:32:00,26.0,19.0,-100.00,WNW,297,2.0,12.0,76,0.00,,,-99.99,,2013-03-04 00:32:00,
2013-03-03 19:42:00,28.0,23.0,-100.00,WNW,300,3.0,12.0,77,0.00,,,-99.99,,2013-03-04 00:42:00,
2013-03-03 19:52:00,27.0,21.0,-100.00,WNW,282,5.0,12.0,78,1.14,,,-99.99,,2013-03-04 00:52:00,
2013-03-03 20:01:00,28.0,23.0,-100.00,West,271,4.0,12.0,78,1.14,,,-99.99,,2013-03-04 01:01:00,
2013-03-03 20:12:00,27.0,23.0,-100.00,NW,312,4.0,12.0,78,0.00,,,-99.99,,2013-03-04 01:12:00,
2013-03-03 20:22:00,25.0,19.0,-100.00,NW,304,4.0,12.0,77,0.00,,,-99.99,,2013-03-04 01:22:00,
2013-03-03 20:32:00,28.0,23.0,-100.00,NNW,336,3.0,12.0,78,0.00,,,-99.99,,2013-03-04 01:32:00,
2013-03-03 20:42:00,28.0,23.0,-100.00,NW,310,4.0,12.0,77,0.00,,,-99.99,,2013-03-04 01:42:00,
2013-03-03 20:52:00,28.0,23.0,-100.00,WNW,300,4.0,12.0,77,0.00,,,-99.99,,2013-03-04 01:52:00,
2013-03-03 21:01:00,28.0,21.0,-100.00,WNW,293,6.0,12.0,75,0.00,,,-99.99,,2013-03-04 02:01:00,
2013-03-03 21:11:00,28.0,21.0,-100.00,NW,320,4.0,12.0,73,0.00,,,-99.99,,2013-03-04 02:11:00,
2013-03-03 21:22:00,28.0,21.0,-100.00,NW,310,6.0,12.0,72,0.00,,,-99.99,,2013-03-04 02:22:00,
2013-03-03 21:32:00,28.0,21.0,-100.00,WNW,295,6.0,12.0,72,0.00,,,-99.99,,2013-03-04 02:32:00,
2013-03-03 21:42:00,28.0,19.0,-100.00,NW,310,6.0,12.0,71,0.00,,,-99.99,,2013-03-04 02:42:00,
2013-03-03 21:52:00,27.0,19.0,-100.00,WNW,297,4.0,12.0,71,0.00,,,-99.99,,2013-03-04 02:52:00,
2013-03-03 22:02:00,27.0,19.0,-100.00,NW,321,6.0,12.0,67,0.00,,,-99.99,,2013-03-04 03:02:00,
2013-03-03 22:11:00,25.0,16.0,-100.00,NW,314,4.0,12.0,63,0.00,,,-99.99,,2013-03-04 03:11:00,
2013-03-03 22:22:00,27.0,18.0,-100.00,NW,307,3.0,12.0,66,0.00,,,-99.99,,2013-03-04 03:22:00,
2013-03-03 22:32:00,25.0,16.0,-100.00,NW,312,2.0,12.0,63,0.00,,,-99.99,,2013-03-04 03:32:00,
2013-03-03 22:42:00,27.0,18.0,-100.00,WNW,283,2.0,12.0,64,0.00,,,-99.99,,2013-03-04 03:42:00,
2013-03-03 22:52:00,25.0,16.0,-100.00,West,269,2.0,12.0,64,0.00,,,-99.99,,2013-03-04 03:52:00,
2013-03-03 23:01:00,28.0,18.0,-100.00,WNW,300,2.0,12.0,64,0.00,,,-99.99,,2013-03-04 04:01:00,
2013-03-03 23:11:00,27.0,18.0,-100.00,WNW,303,2.0,12.0,66,0.00,,,-99.99,,2013-03-04 04:11:00,
2013-03-03 23:22:00,27.0,18.0,-100.00,WNW,295,2.0,12.0,66,0.00,,,-99.99,,2013-03-04 04:22:00,
2013-03-03 23:32:00,28.0,19.0,-100.00,NNW,343,2.0,12.0,68,0.00,,,-99.99,,2013-03-04 04:32:00,
2013-03-03 23:42:00,27.0,19.0,-100.00,West,269,1.0,12.0,67,0.00,,,-99.99,,2013-03-04 04:42:00,
2013-03-03 23:52:00,28.0,19.0,-100.00,WNW,289,2.0,12.0,67,0.00,,,-99.99,,2013-03-04 04:52:00,